Location: Jetmore Oil Field
(38.1181°N, 99.9337°W)
Time: 18:23:58
(UTC+00:00)

FENGYUN 3A - Pass Details

Date: 17 February 2020
Orbit: 824 x 836 km, 98.4° (Epoch: 28 March)

Event Time Altitude Azimuth Distance (km) Brightness Sun altitude
Rises 11:38:13 0° 15° (NNE) 3,391 7.1 -22.2°
Reaches altitude 10° 11:40:36 10° 19° (NNE) 2,454 6.3 -21.8°
Maximum altitude 11:46:01 67° 102° (ESE) 906 4.0 -20.7°
Drops below altitude 10° 11:51:24 10° 184° (S) 2,438 6.1 -19.6°
Sets 11:53:45 0° 187° (S) 3,367 6.8 -19.2°
